| time (UTC) | temp C | wind direction | speed KPH | gust KPH | rain 1hr cm | rain 24hr cm | rain mn cm | humidity % | barometer mb |
| 20260505200021 | 28 | 182 | 4.8 | 11.3 | 0.00 | 0.00 | 0.00 | 39 | 1015.6 |
| 20260505195511 | 28 | 162 | 4.8 | 12.9 | 0.00 | 0.00 | 0.00 | 40 | 1015.7 |
| 20260505195011 | 28 | 205 | 4.8 | 12.9 | 0.00 | 0.00 | 0.00 | 38 | 1015.7 |
| 20260505194007 | 29 | 178 | 4.8 | 14.5 | 0.00 | 0.00 | 0.00 | 39 | 1016.0 |
| 20260505193025 | 30 | 173 | 6.4 | 11.3 | 0.00 | 0.00 | 0.00 | 38 | 1016.2 |
| 20260505192511 | 30 | 167 | 3.2 | 14.5 | 0.00 | 0.00 | 0.00 | 37 | 1016.3 |
| 20260505192009 | 30 | 204 | 4.8 | 14.5 | 0.00 | 0.00 | 0.00 | 36 | 1016.2 |
| 20260505191010 | 30 | 146 | 4.8 | 12.9 | 0.00 | 0.00 | 0.00 | 36 | 1016.4 |
| 20260505190503 | 30 | 190 | 4.8 | 12.9 | 0.00 | 0.00 | 0.00 | 38 | 1016.4 |
| 20260505190019 | 30 | 157 | 3.2 | 16.1 | 0.00 | 0.00 | 0.00 | 38 | 1016.4 |
| 20260505185507 | 30 | 222 | 4.8 | 16.1 | 0.00 | 0.00 | 0.00 | 37 | 1016.4 |
| 20260505185008 | 30 | 184 | 4.8 | 12.9 | 0.00 | 0.00 | 0.00 | 37 | 1016.7 |
| 20260505184526 | 30 | 171 | 6.4 | 12.9 | 0.00 | 0.00 | 0.00 | 37 | 1016.7 |
| 20260505184006 | 30 | 182 | 1.6 | 11.3 | 0.00 | 0.00 | 0.00 | 39 | 1016.7 |
| 20260505183508 | 30 | 167 | 3.2 | 9.7 | 0.00 | 0.00 | 0.00 | 38 | 1016.7 |
| 20260505183025 | 29 | 161 | 3.2 | 9.7 | 0.00 | 0.00 | 0.00 | 39 | 1016.8 |
| 20260505182517 | 29 | 260 | 1.6 | 9.7 | 0.00 | 0.00 | 0.00 | 38 | 1016.6 |
| 20260505182012 | 30 | 235 | 4.8 | 9.7 | 0.00 | 0.00 | 0.00 | 39 | 1016.6 |
| 20260505181527 | 29 | 109 | 1.6 | 8.0 | 0.00 | 0.00 | 0.00 | 40 | 1016.7 |
| 20260505181012 | 29 | 122 | 3.2 | 9.7 | 0.00 | 0.00 | 0.00 | 38 | 1016.8 |
| 20260505180505 | 29 | 174 | 4.8 | 9.7 | 0.00 | 0.00 | 0.00 | 38 | 1016.9 |
| 20260505180030 | 29 | 179 | 3.2 | 9.7 | 0.00 | 0.00 | 0.00 | 38 | 1016.9 |
| 20260505175508 | 30 | 195 | 3.2 | 9.7 | 0.00 | 0.00 | 0.00 | 38 | 1017.0 |
| 20260505175010 | 29 | 182 | 4.8 | 14.5 | 0.00 | 0.00 | 0.00 | 38 | 1017.1 |
| 20260505174544 | 29 | 175 | 1.6 | 17.7 | 0.00 | 0.00 | 0.00 | 38 | 1017.1 |
| 20260505174008 | 29 | 165 | 8.0 | 17.7 | 0.00 | 0.00 | 0.00 | 38 | 1017.1 |
| 20260505173508 | 29 | 185 | 4.8 | 16.1 | 0.00 | 0.00 | 0.00 | 39 | 1017.1 |
| 20260505173028 | 29 | 155 | 1.6 | 9.7 | 0.00 | 0.00 | 0.00 | 39 | 1017.2 |
| 20260505172507 | 29 | 242 | 3.2 | 9.7 | 0.00 | 0.00 | 0.00 | 38 | 1017.1 |
| 20260505172008 | 29 | 240 | 3.2 | 9.7 | 0.00 | 0.00 | 0.00 | 39 | 1017.2 |
| 20260505171526 | 29 | 186 | 4.8 | 8.0 | 0.00 | 0.00 | 0.00 | 39 | 1017.2 |
| 20260505171011 | 29 | 228 | 3.2 | 9.7 | 0.00 | 0.00 | 0.00 | 39 | 1017.2 |
| 20260505170510 | 30 | 246 | 4.8 | 9.7 | 0.00 | 0.00 | 0.00 | 38 | 1017.2 |
| 20260505165509 | 29 | 167 | 3.2 | 9.7 | 0.00 | 0.00 | 0.00 | 40 | 1017.3 |
| 20260505165008 | 29 | 153 | 3.2 | 9.7 | 0.00 | 0.00 | 0.00 | 40 | 1017.4 |
| 20260505164516 | 29 | 171 | 3.2 | 9.7 | 0.00 | 0.00 | 0.00 | 40 | 1017.6 |
| 20260505164007 | 29 | 198 | 4.8 | 11.3 | 0.00 | 0.00 | 0.00 | 40 | 1017.7 |
| 20260505162503 | 28 | 242 | 1.6 | 8.0 | 0.00 | 0.00 | 0.00 | 41 | 1017.8 |
| 20260505162003 | 28 | 174 | 3.2 | 6.4 | 0.00 | 0.00 | 0.00 | 42 | 1017.9 |
| 20260505161004 | 28 | 224 | 3.2 | 9.7 | 0.00 | 0.00 | 0.00 | 42 | 1017.9 |
| 20260505160504 | 28 | 161 | 4.8 | 9.7 | 0.00 | 0.00 | 0.00 | 41 | 1018.0 |
| 20260505153020 | 26 | 242 | 0.0 | 12.9 | 0.00 | 0.00 | 0.00 | 48 | 1018.3 |
| 20260505152004 | 26 | 236 | 3.2 | 9.7 | 0.00 | 0.00 | 0.00 | 47 | 1018.4 |
| 20260505151006 | 26 | 197 | 1.6 | 8.0 | 0.00 | 0.00 | 0.00 | 49 | 1018.3 |
| 20260505150505 | 25 | 146 | 3.2 | 8.0 | 0.00 | 0.00 | 0.00 | 49 | 1018.4 |
| 20260505140503 | 22 | 231 | 3.2 | 14.5 | 0.00 | 0.00 | 0.00 | 60 | 1018.4 |
| 20260505125003 | 17 | 175 | 0.0 | 3.2 | 0.00 | 0.00 | 0.00 | 74 | 1018.3 |
| 20260505124513 | 17 | 247 | 0.0 | 3.2 | 0.00 | 0.00 | 0.00 | 75 | 1018.2 |
| 20260505124007 | 17 | 238 | 1.6 | 3.2 | 0.00 | 0.00 | 0.00 | 76 | 1018.2 |
| 20260505123504 | 16 | 248 | 0.0 | 3.2 | 0.00 | 0.00 | 0.00 | 77 | 1018.2 |
| 20260505122507 | 16 | 248 | 1.6 | 3.2 | 0.00 | 0.00 | 0.00 | 79 | 1018.2 |
| 20260505122008 | 16 | 203 | 0.0 | 3.2 | 0.00 | 0.00 | 0.00 | 80 | 1018.2 |
| 20260505121007 | 15 | 227 | 0.0 | 3.2 | 0.00 | 0.00 | 0.00 | 81 | 1018.3 |
| 20260505120508 | 15 | 238 | 1.6 | 3.2 | 0.00 | 0.00 | 0.00 | 82 | 1018.2 |
| 20260505120022 | 14 | 188 | 0.0 | 6.4 | 0.00 | 0.00 | 0.00 | 83 | 1018.1 |
| 20260505115508 | 13 | 180 | 0.0 | 6.4 | 0.00 | 0.00 | 0.00 | 84 | 1018.1 |
| 20260505115007 | 13 | 205 | 1.6 | 3.2 | 0.00 | 0.00 | 0.00 | 85 | 1018.0 |
| 20260505114007 | 12 | 175 | 1.6 | 3.2 | 0.00 | 0.00 | 0.00 | 86 | 1017.8 |
| 20260505113506 | 12 | 178 | 0.0 | 3.2 | 0.00 | 0.00 | 0.00 | 86 | 1017.8 |
| 20260505112506 | 12 | 160 | 0.0 | 3.2 | 0.00 | 0.00 | 0.00 | 84 | 1017.7 |
| 20260505112007 | 12 | 161 | 0.0 | 3.2 | 0.00 | 0.00 | 0.00 | 83 | 1017.6 |
| 20260505111005 | 12 | 169 | 0.0 | 3.2 | 0.00 | 0.00 | 0.00 | 82 | 1017.6 |
| 20260505110507 | 12 | 163 | 0.0 | 3.2 | 0.00 | 0.00 | 0.00 | 81 | 1017.5 |
| 20260505102008 | 12 | 169 | 0.0 | 0.0 | 0.00 | 0.00 | 0.00 | 79 | 1017.1 |
| 20260505101530 | 12 | 169 | 0.0 | 0.0 | 0.00 | 0.00 | 0.00 | 79 | 1017.0 |
| 20260505101007 | 12 | 169 | 0.0 | 0.0 | 0.00 | 0.00 | 0.00 | 79 | 1016.9 |
| 20260505100505 | 12 | 169 | 0.0 | 3.2 | 0.00 | 0.00 | 0.00 | 79 | 1016.9 |
| 20260505100024 | 12 | 169 | 0.0 | 3.2 | 0.00 | 0.00 | 0.00 | 79 | 1016.8 |
| 20260505095507 | 12 | 169 | 0.0 | 0.0 | 0.00 | 0.00 | 0.00 | 78 | 1016.8 |
| 20260505095011 | 12 | 169 | 0.0 | 0.0 | 0.00 | 0.00 | 0.00 | 78 | 1016.8 |
| 20260505094528 | 12 | 169 | 0.0 | 0.0 | 0.00 | 0.00 | 0.00 | 78 | 1016.8 |
| 20260505094010 | 12 | 169 | 0.0 | 0.0 | 0.00 | 0.00 | 0.00 | 77 | 1016.7 |
| 20260505093035 | 13 | 169 | 0.0 | 1.6 | 0.00 | 0.00 | 0.00 | 77 | 1016.7 |
| 20260505092509 | 13 | 169 | 0.0 | 3.2 | 0.00 | 0.00 | 0.00 | 77 | 1016.7 |
| 20260505092007 | 13 | 169 | 0.0 | 3.2 | 0.00 | 0.00 | 0.00 | 77 | 1016.7 |
| 20260505091512 | 13 | 175 | 0.0 | 3.2 | 0.00 | 0.00 | 0.00 | 76 | 1016.6 |
| 20260505091007 | 13 | 175 | 0.0 | 3.2 | 0.00 | 0.00 | 0.00 | 76 | 1016.7 |
| 20260505090505 | 13 | 185 | 0.0 | 0.0 | 0.00 | 0.00 | 0.00 | 76 | 1016.6 |
| 20260505090019 | 13 | 185 | 0.0 | 0.0 | 0.00 | 0.00 | 0.00 | 75 | 1016.6 |
| 20260505085511 | 13 | 185 | 0.0 | 0.0 | 0.00 | 0.00 | 0.00 | 75 | 1016.5 |
| 20260505085007 | 13 | 185 | 0.0 | 3.2 | 0.00 | 0.00 | 0.00 | 75 | 1016.4 |
| 20260505084524 | 13 | 185 | 0.0 | 3.2 | 0.00 | 0.00 | 0.00 | 75 | 1016.4 |
| 20260505084010 | 13 | 153 | 0.0 | 3.2 | 0.00 | 0.00 | 0.00 | 75 | 1016.4 |
| 20260505083510 | 13 | 167 | 0.0 | 3.2 | 0.00 | 0.00 | 0.00 | 75 | 1016.3 |
| 20260505083031 | 13 | 179 | 0.0 | 3.2 | 0.00 | 0.00 | 0.00 | 75 | 1016.4 |
| 20260505082510 | 13 | 169 | 0.0 | 4.8 | 0.00 | 0.00 | 0.00 | 74 | 1016.3 |
| 20260505082010 | 13 | 184 | 0.0 | 4.8 | 0.00 | 0.00 | 0.00 | 74 | 1016.3 |
| 20260505081530 | 13 | 170 | 0.0 | 3.2 | 0.00 | 0.00 | 0.00 | 73 | 1016.3 |
| 20260505081010 | 13 | 170 | 0.0 | 3.2 | 0.00 | 0.00 | 0.00 | 73 | 1016.3 |
| 20260505080505 | 13 | 170 | 0.0 | 3.2 | 0.00 | 0.00 | 0.00 | 73 | 1016.3 |
| 20260505080018 | 14 | 169 | 0.0 | 3.2 | 0.00 | 0.00 | 0.00 | 73 | 1016.4 |
| 20260505075507 | 14 | 161 | 0.0 | 3.2 | 0.00 | 0.00 | 0.00 | 72 | 1016.3 |
| 20260505075007 | 14 | 161 | 0.0 | 3.2 | 0.00 | 0.00 | 0.00 | 72 | 1016.3 |
| 20260505074524 | 14 | 176 | 0.0 | 3.2 | 0.00 | 0.00 | 0.00 | 73 | 1016.3 |
| 20260505074007 | 14 | 175 | 0.0 | 3.2 | 0.00 | 0.00 | 0.00 | 73 | 1016.3 |
| 20260505073510 | 14 | 171 | 0.0 | 4.8 | 0.00 | 0.00 | 0.00 | 72 | 1016.3 |
| 20260505073025 | 14 | 167 | 0.0 | 4.8 | 0.00 | 0.00 | 0.00 | 72 | 1016.3 |
| 20260505072512 | 14 | 155 | 0.0 | 4.8 | 0.00 | 0.00 | 0.00 | 72 | 1016.2 |
| 20260505072011 | 14 | 169 | 0.0 | 3.2 | 0.00 | 0.00 | 0.00 | 71 | 1016.3 |
| 20260505071525 | 14 | 155 | 0.0 | 3.2 | 0.00 | 0.00 | 0.00 | 71 | 1016.3 |
| 20260505071004 | 14 | 169 | 0.0 | 3.2 | 0.00 | 0.00 | 0.00 | 71 | 1016.2 |
| 20260505070506 | 15 | 168 | 1.6 | 3.2 | 0.00 | 0.00 | 0.00 | 70 | 1016.2 |
| 20260505070014 | 15 | 168 | 0.0 | 3.2 | 0.00 | 0.00 | 0.00 | 70 | 1016.2 |
| 20260505065506 | 15 | 226 | 0.0 | 3.2 | 0.00 | 0.00 | 0.00 | 70 | 1016.2 |
| 20260505065005 | 15 | 180 | 0.0 | 3.2 | 0.00 | 0.00 | 0.00 | 70 | 1016.2 |
| 20260505064520 | 15 | 159 | 0.0 | 3.2 | 0.00 | 0.00 | 0.00 | 69 | 1016.1 |
| 20260505064007 | 15 | 167 | 0.0 | 3.2 | 0.00 | 0.00 | 0.00 | 69 | 1016.2 |
| 20260505063503 | 15 | 184 | 0.0 | 3.2 | 0.00 | 0.00 | 0.00 | 69 | 1016.2 |
| 20260505063004 | 15 | 169 | 0.0 | 3.2 | 0.00 | 0.00 | 0.00 | 69 | 1016.2 |
| 20260505062506 | 15 | 164 | 0.0 | 3.2 | 0.00 | 0.00 | 0.00 | 68 | 1016.3 |
| 20260505062003 | 15 | 173 | 0.0 | 3.2 | 0.00 | 0.00 | 0.00 | 68 | 1016.3 |
| 20260505061510 | 15 | 180 | 0.0 | 3.2 | 0.00 | 0.00 | 0.00 | 68 | 1016.4 |
| 20260505061006 | 15 | 165 | 0.0 | 4.8 | 0.00 | 0.00 | 0.00 | 67 | 1016.4 |
| 20260505060506 | 15 | 173 | 0.0 | 4.8 | 0.00 | 0.00 | 0.00 | 67 | 1016.5 |
| 20260505060012 | 15 | 173 | 0.0 | 4.8 | 0.00 | 0.00 | 0.00 | 67 | 1016.5 |
| 20260505055507 | 15 | 182 | 0.0 | 4.8 | 0.00 | 0.00 | 0.00 | 66 | 1016.5 |
| 20260505055007 | 16 | 168 | 0.0 | 4.8 | 0.00 | 0.00 | 0.00 | 67 | 1016.6 |
| 20260505054518 | 16 | 171 | 0.0 | 4.8 | 0.00 | 0.00 | 0.00 | 66 | 1016.6 |
| 20260505054011 | 16 | 162 | 0.0 | 4.8 | 0.00 | 0.00 | 0.00 | 66 | 1016.6 |
| 20260505053508 | 16 | 155 | 0.0 | 4.8 | 0.00 | 0.00 | 0.00 | 66 | 1016.5 |
| 20260505053021 | 16 | 170 | 0.0 | 4.8 | 0.00 | 0.00 | 0.00 | 65 | 1016.6 |
| 20260505052504 | 16 | 217 | 1.6 | 4.8 | 0.00 | 0.00 | 0.00 | 65 | 1016.6 |
| 20260505052006 | 16 | 175 | 1.6 | 3.2 | 0.00 | 0.00 | 0.00 | 65 | 1016.7 |
| 20260505051522 | 16 | 170 | 0.0 | 4.8 | 0.00 | 0.00 | 0.00 | 65 | 1016.8 |
| 20260505051004 | 16 | 175 | 1.6 | 4.8 | 0.00 | 0.00 | 0.00 | 64 | 1016.8 |
| 20260505050506 | 16 | 190 | 0.0 | 3.2 | 0.00 | 0.00 | 0.00 | 64 | 1016.9 |
| 20260505041527 | 17 | 190 | 1.6 | 6.4 | 0.00 | 0.00 | 0.00 | 62 | 1016.7 |
| 20260505041004 | 17 | 194 | 1.6 | 3.2 | 0.00 | 0.00 | 0.00 | 62 | 1016.7 |
| 20260505040504 | 17 | 171 | 0.0 | 3.2 | 0.00 | 0.00 | 0.00 | 62 | 1016.7 |
| 20260505040013 | 17 | 182 | 1.6 | 8.0 | 0.00 | 0.00 | 0.00 | 62 | 1016.7 |
| 20260505035505 | 17 | 161 | 1.6 | 8.0 | 0.00 | 0.00 | 0.00 | 61 | 1016.8 |
| 20260505035004 | 17 | 173 | 1.6 | 6.4 | 0.00 | 0.00 | 0.00 | 61 | 1016.8 |
| 20260505034516 | 17 | 227 | 1.6 | 4.8 | 0.00 | 0.00 | 0.00 | 61 | 1016.7 |
| 20260505034004 | 17 | 180 | 1.6 | 4.8 | 0.00 | 0.00 | 0.00 | 61 | 1016.8 |
| 20260505033506 | 17 | 169 | 1.6 | 6.4 | 0.00 | 0.00 | 0.00 | 61 | 1016.7 |
| 20260505033016 | 17 | 209 | 1.6 | 6.4 | 0.00 | 0.00 | 0.00 | 61 | 1016.8 |
| 20260505032508 | 17 | 167 | 0.0 | 8.0 | 0.00 | 0.00 | 0.00 | 61 | 1016.8 |
| 20260505032007 | 17 | 162 | 1.6 | 8.0 | 0.00 | 0.00 | 0.00 | 61 | 1016.8 |
| 20260505031523 | 17 | 175 | 1.6 | 8.0 | 0.00 | 0.00 | 0.00 | 61 | 1016.7 |
| 20260505031008 | 17 | 186 | 3.2 | 8.0 | 0.00 | 0.00 | 0.00 | 61 | 1016.7 |
| 20260505030509 | 17 | 188 | 3.2 | 14.5 | 0.00 | 0.00 | 0.00 | 61 | 1016.7 |
| 20260505030008 | 17 | 193 | 3.2 | 14.5 | 0.00 | 0.00 | 0.00 | 61 | 1016.8 |
| 20260505025507 | 17 | 194 | 3.2 | 8.0 | 0.00 | 0.00 | 0.00 | 61 | 1016.8 |
| 20260505025004 | 17 | 163 | 3.2 | 9.7 | 0.00 | 0.00 | 0.00 | 61 | 1016.8 |
| 20260505024514 | 17 | 169 | 3.2 | 9.7 | 0.00 | 0.00 | 0.00 | 60 | 1016.8 |
| 20260505024002 | 17 | 192 | 3.2 | 9.7 | 0.00 | 0.00 | 0.00 | 60 | 1016.8 |
| 20260505023504 | 17 | 186 | 3.2 | 9.7 | 0.00 | 0.00 | 0.00 | 60 | 1016.8 |
| 20260505023017 | 17 | 189 | 3.2 | 8.0 | 0.00 | 0.00 | 0.00 | 60 | 1016.8 |
| 20260505022504 | 18 | 178 | 3.2 | 8.0 | 0.00 | 0.00 | 0.00 | 60 | 1016.7 |
| 20260505022008 | 18 | 182 | 1.6 | 11.3 | 0.00 | 0.00 | 0.00 | 60 | 1016.7 |
| 20260505021518 | 18 | 189 | 3.2 | 11.3 | 0.00 | 0.00 | 0.00 | 60 | 1016.7 |
| 20260505021007 | 18 | 194 | 3.2 | 9.7 | 0.00 | 0.00 | 0.00 | 59 | 1016.7 |
| 20260505020507 | 18 | 182 | 1.6 | 8.0 | 0.00 | 0.00 | 0.00 | 59 | 1016.7 |
| 20260505020022 | 18 | 186 | 1.6 | 8.0 | 0.00 | 0.00 | 0.00 | 59 | 1016.7 |
| 20260505015512 | 18 | 187 | 1.6 | 9.7 | 0.00 | 0.00 | 0.00 | 58 | 1016.7 |
| 20260505015007 | 18 | 167 | 3.2 | 9.7 | 0.00 | 0.00 | 0.00 | 58 | 1016.7 |
| 20260505014507 | 18 | 165 | 3.2 | 8.0 | 0.00 | 0.00 | 0.00 | 58 | 1016.6 |
| 20260505014007 | 18 | 157 | 3.2 | 11.3 | 0.00 | 0.00 | 0.00 | 57 | 1016.6 |
| 20260505013504 | 19 | 174 | 1.6 | 8.0 | 0.00 | 0.00 | 0.00 | 57 | 1016.5 |
| 20260505013011 | 19 | 189 | 1.6 | 6.4 | 0.00 | 0.00 | 0.00 | 57 | 1016.4 |
| 20260505012504 | 19 | 173 | 1.6 | 6.4 | 0.00 | 0.00 | 0.00 | 57 | 1016.3 |
| 20260505012009 | 19 | 141 | 1.6 | 6.4 | 0.00 | 0.00 | 0.00 | 56 | 1016.3 |
| 20260505011518 | 20 | 144 | 1.6 | 6.4 | 0.00 | 0.00 | 0.00 | 55 | 1016.2 |
| 20260505011005 | 20 | 156 | 0.0 | 6.4 | 0.00 | 0.00 | 0.00 | 55 | 1016.2 |
| 20260505010508 | 20 | 180 | 1.6 | 14.5 | 0.00 | 0.00 | 0.00 | 55 | 1016.2 |
| 20260505010022 | 20 | 165 | 1.6 | 14.5 | 0.00 | 0.00 | 0.00 | 54 | 1016.2 |
| 20260505005507 | 20 | 162 | 1.6 | 9.7 | 0.00 | 0.00 | 0.00 | 54 | 1016.2 |
| 20260505005008 | 20 | 169 | 1.6 | 8.0 | 0.00 | 0.00 | 0.00 | 54 | 1016.0 |
| 20260505004525 | 20 | 146 | 1.6 | 8.0 | 0.00 | 0.00 | 0.00 | 53 | 1016.0 |
| 20260505004008 | 20 | 161 | 3.2 | 9.7 | 0.00 | 0.00 | 0.00 | 53 | 1015.9 |
| 20260505003507 | 20 | 205 | 1.6 | 11.3 | 0.00 | 0.00 | 0.00 | 53 | 1015.9 |
| 20260505003020 | 21 | 194 | 3.2 | 11.3 | 0.00 | 0.00 | 0.00 | 53 | 1015.8 |
| 20260505002504 | 21 | 164 | 3.2 | 12.9 | 0.00 | 0.00 | 0.00 | 52 | 1015.7 |
| 20260505002005 | 21 | 169 | 4.8 | 12.9 | 0.00 | 0.00 | 0.00 | 52 | 1015.7 |
| 20260505001516 | 21 | 170 | 3.2 | 11.3 | 0.00 | 0.00 | 0.00 | 52 | 1015.7 |
| 20260505001004 | 21 | 192 | 4.8 | 11.3 | 0.00 | 0.00 | 0.00 | 51 | 1015.7 |
| 20260505000506 | 21 | 131 | 3.2 | 16.1 | 0.00 | 0.00 | 0.00 | 51 | 1015.6 |
| 20260505000021 | 22 | 157 | 4.8 | 12.9 | 0.00 | 0.00 | 0.00 | 51 | 1015.6 |
| 20260504235508 | 22 | 178 | 4.8 | 11.3 | 0.00 | 0.00 | 0.00 | 50 | 1015.5 |
| 20260504235008 | 22 | 173 | 3.2 | 8.0 | 0.00 | 0.00 | 0.00 | 50 | 1015.5 |
| 20260504234524 | 22 | 157 | 4.8 | 17.7 | 0.00 | 0.00 | 0.00 | 50 | 1015.3 |
| 20260504234008 | 22 | 184 | 4.8 | 17.7 | 0.00 | 0.00 | 0.00 | 49 | 1015.3 |
| 20260504233507 | 23 | 184 | 4.8 | 11.3 | 0.00 | 0.00 | 0.00 | 49 | 1015.2 |
| 20260504233026 | 23 | 153 | 3.2 | 12.9 | 0.00 | 0.00 | 0.00 | 49 | 1015.1 |
| 20260504232512 | 23 | 159 | 6.4 | 19.3 | 0.00 | 0.00 | 0.00 | 48 | 1014.9 |
| 20260504232004 | 23 | 142 | 6.4 | 19.3 | 0.00 | 0.00 | 0.00 | 47 | 1014.9 |
| 20260504231510 | 23 | 178 | 4.8 | 16.1 | 0.00 | 0.00 | 0.00 | 45 | 1014.7 |
| 20260504231005 | 23 | 161 | 3.2 | 16.1 | 0.00 | 0.00 | 0.00 | 39 | 1014.7 |
| 20260504230506 | 23 | 156 | 1.6 | 9.7 | 0.00 | 0.00 | 0.00 | 37 | 1014.6 |
| 20260504230018 | 23 | 151 | 4.8 | 9.7 | 0.00 | 0.00 | 0.00 | 37 | 1014.6 |
| 20260504225511 | 23 | 159 | 3.2 | 14.5 | 0.00 | 0.00 | 0.00 | 36 | 1014.6 |
| 20260504225006 | 24 | 189 | 6.4 | 14.5 | 0.00 | 0.00 | 0.00 | 36 | 1014.5 |
| 20260504224522 | 24 | 188 | 3.2 | 6.4 | 0.00 | 0.00 | 0.00 | 36 | 1014.6 |
| 20260504224007 | 24 | 206 | 1.6 | 6.4 | 0.00 | 0.00 | 0.00 | 36 | 1014.6 |
| 20260504223022 | 24 | 171 | 4.8 | 9.7 | 0.00 | 0.00 | 0.00 | 36 | 1014.6 |
| 20260504222510 | 24 | 232 | 4.8 | 9.7 | 0.00 | 0.00 | 0.00 | 36 | 1014.6 |
| 20260504222011 | 24 | 202 | 3.2 | 8.0 | 0.00 | 0.00 | 0.00 | 36 | 1014.6 |
| 20260504221526 | 24 | 197 | 3.2 | 8.0 | 0.00 | 0.00 | 0.00 | 36 | 1014.6 |
| 20260504221004 | 24 | 230 | 3.2 | 8.0 | 0.00 | 0.00 | 0.00 | 35 | 1014.5 |
| 20260504220505 | 24 | 186 | 1.6 | 11.3 | 0.00 | 0.00 | 0.00 | 36 | 1014.5 |
| 20260504220014 | 25 | 213 | 3.2 | 11.3 | 0.00 | 0.00 | 0.00 | 35 | 1014.6 |
| 20260504215506 | 25 | 188 | 3.2 | 12.9 | 0.00 | 0.00 | 0.00 | 35 | 1014.6 |
| 20260504215008 | 25 | 148 | 3.2 | 12.9 | 0.00 | 0.00 | 0.00 | 35 | 1014.6 |
| 20260504214521 | 25 | 238 | 3.2 | 9.7 | 0.00 | 0.00 | 0.00 | 34 | 1014.6 |
| 20260504214009 | 25 | 188 | 3.2 | 11.3 | 0.00 | 0.00 | 0.00 | 35 | 1014.6 |
| 20260504213508 | 25 | 192 | 3.2 | 12.9 | 0.00 | 0.00 | 0.00 | 34 | 1014.6 |
| 20260504213024 | 25 | 226 | 4.8 | 12.9 | 0.00 | 0.00 | 0.00 | 35 | 1014.7 |
| 20260504212510 | 25 | 167 | 1.6 | 8.0 | 0.00 | 0.00 | 0.00 | 33 | 1014.8 |
| 20260504212009 | 25 | 189 | 3.2 | 9.7 | 0.00 | 0.00 | 0.00 | 34 | 1015.0 |
| 20260504211525 | 25 | 182 | 3.2 | 9.7 | 0.00 | 0.00 | 0.00 | 35 | 1014.9 |
| 20260504211007 | 25 | 171 | 4.8 | 14.5 | 0.00 | 0.00 | 0.00 | 34 | 1014.9 |
| 20260504210509 | 25 | 159 | 6.4 | 14.5 | 0.00 | 0.00 | 0.00 | 34 | 1014.8 |
| 20260504210032 | 25 | 178 | 6.4 | 11.3 | 0.00 | 0.00 | 0.00 | 34 | 1014.9 |
| 20260504205509 | 25 | 148 | 3.2 | 11.3 | 0.00 | 0.00 | 0.00 | 33 | 1014.9 |
| 20260504205007 | 25 | 188 | 1.6 | 6.4 | 0.00 | 0.00 | 0.00 | 34 | 1014.8 |
| 20260504204520 | 25 | 173 | 0.0 | 6.4 | 0.00 | 0.00 | 0.00 | 32 | 1014.9 |
| 20260504204010 | 26 | 209 | 3.2 | 6.4 | 0.00 | 0.00 | 0.00 | 32 | 1015.0 |
| 20260504203512 | 26 | 153 | 4.8 | 14.5 | 0.00 | 0.00 | 0.00 | 32 | 1015.0 |
| 20260504203029 | 26 | 190 | 3.2 | 14.5 | 0.00 | 0.00 | 0.00 | 31 | 1015.0 |
| 20260504202507 | 26 | 149 | 6.4 | 14.5 | 0.00 | 0.00 | 0.00 | 32 | 1015.0 |
| 20260504202010 | 26 | 235 | 3.2 | 6.4 | 0.00 | 0.00 | 0.00 | 32 | 1015.0 |
| 20260504201523 | 26 | 224 | 3.2 | 8.0 | 0.00 | 0.00 | 0.00 | 32 | 1015.0 |
| 20260504201018 | 26 | 167 | 0.0 | 9.7 | 0.00 | 0.00 | 0.00 | 31 | 1015.0 |
| 20260504200507 | 26 | 223 | 3.2 | 12.9 | 0.00 | 0.00 | 0.00 | 30 | 1015.1 |